DM0MR Weather Reports


Display with metric or nautical units.
time (UTC)temp
F
wind
direction
speed
MPH
gust
MPH
rain 1hr
in
rain 24hr
in
rain mn
in
humidity
%
barometer
mb
20260507095642 46 165 0.0 5.0 0.07 1.19 1.11 97 1003.0
20260507094142 46 177 2.0 3.0 0.09 1.18 1.09 97 1002.8
20260507085642 46 175 0.0 3.0 0.11 1.11 1.02 97 1002.2
20260507082644 46 152 0.0 2.0 0.09 1.05 0.96 97 1001.8
20260507081145 46 165 1.0 3.0 0.09 1.02 0.94 97 1001.5
20260507075644 46 161 0.0 3.0 0.08 0.99 0.90 97 1001.3
20260507074142 46 179 0.0 6.0 0.09 0.98 0.89 97 1001.1
20260507072644 47 173 1.0 5.0 0.09 0.95 0.87 99 1001.0
20260507065642 48 169 0.0 4.0 0.11 0.90 0.82 99 1000.7
20260507064142 49 168 0.0 2.0 0.12 0.87 0.79 99 1000.4
20260507061142 49 163 0.0 3.0 0.17 0.86 0.74 99 1000.1
20260507055643 49 158 0.0 1.0 0.22 0.83 0.70 99 999.9
20260507054143 49 157 0.0 3.0 0.23 0.80 0.66 99 999.8
20260507052643 49 149 0.0 0.0 0.22 0.76 0.62 99 999.5
20260507051143 49 159 0.0 2.0 0.17 0.72 0.56 99 999.3
20260507045644 49 173 0.0 5.0 0.12 0.63 0.48 99 999.0
20260507044144 50 145 0.0 2.0 0.09 0.57 0.42 99 998.9
20260507042642 50 147 0.0 2.0 0.10 0.55 0.40 99 998.7
20260507041143 50 175 0.0 2.0 0.11 0.54 0.38 99 998.4
20260507035644 50 181 0.0 3.0 0.16 0.50 0.35 99 998.3
20260507034144 50 192 0.0 4.0 0.15 0.48 0.33 99 998.1
20260507032642 51 141 0.0 1.0 0.11 0.44 0.29 99 998.1
20260507031142 51 142 0.0 6.0 0.09 0.42 0.27 99 998.0
20260507025643 51 186 0.0 6.0 0.01 0.34 0.18 99 997.7
20260507024143 51 235 3.0 7.0 0.00 0.33 0.17 99 997.5
20260507022642 51 201 2.0 7.0 0.00 0.33 0.17 99 997.5
20260507021144 52 174 1.0 4.0 0.00 0.33 0.17 99 997.5
20260507015643 52 192 3.0 4.0 0.00 0.33 0.17 98 997.6
20260507014142 52 198 1.0 6.0 0.00 0.33 0.17 98 997.3
20260507011144 53 234 2.0 6.0 0.00 0.35 0.17 98 997.5
20260507005641 53 177 0.0 3.0 0.00 0.37 0.17 98 997.4
20260507004143 53 191 3.0 5.0 0.00 0.38 0.17 98 997.4
20260507002643 53 181 0.0 3.0 0.00 0.41 0.17 98 997.4
20260507001144 53 150 0.0 2.0 0.01 0.46 0.17 98 997.3
20260506235642 53 177 1.0 3.0 0.02 0.53 0.17 98 997.3
20260506234141 53 189 1.0 5.0 0.02 0.62 0.17 98 997.3
20260506232643 53 187 0.0 4.0 0.02 0.64 0.17 98 997.3
20260506231141 54 190 0.0 5.0 0.01 0.66 0.16 97 997.4
20260506225645 54 181 0.0 3.0 0.00 0.66 0.15 97 997.3
20260506224143 54 187 2.0 4.0 0.01 0.67 0.15 97 997.1
20260506222642 54 200 1.0 4.0 0.01 0.70 0.15 97 997.1
20260506221143 54 208 0.0 3.0 0.02 0.73 0.15 97 996.8
20260506215642 55 158 0.0 4.0 0.03 0.76 0.15 97 997.0
20260506214141 55 184 0.0 3.0 0.02 0.77 0.14 97 996.9
20260506212642 55 178 0.0 5.0 0.02 0.79 0.14 97 996.8
20260506211142 55 181 0.0 2.0 0.01 0.80 0.12 99 996.9
20260506204143 56 201 0.0 3.0 0.00 0.83 0.11 99 996.5
20260506202643 56 190 0.0 3.0 0.00 0.85 0.11 99 996.6
20260506201141 56 186 1.0 3.0 0.00 0.87 0.11 99 996.5
20260506195641 56 179 0.0 3.0 0.00 0.89 0.11 99 996.4
20260506194142 56 193 0.0 6.0 0.01 0.89 0.11 99 996.2
20260506192642 56 191 0.0 6.0 0.04 0.89 0.11 99 996.1
20260506191143 56 186 1.0 4.0 0.07 0.89 0.11 99 995.7
20260506185641 56 196 1.0 6.0 0.10 0.89 0.11 99 995.7
20260506184142 56 175 0.0 3.0 0.10 0.88 0.10 98 995.5
20260506182641 56 147 0.0 0.0 0.07 0.85 0.07 97 995.6
20260506181141 57 135 0.0 2.0 0.04 0.82 0.04 95 995.5
20260506174143 58 217 1.0 7.0 0.00 0.77 0.00 93 995.2
20260506172641 59 176 2.0 7.0 0.00 0.77 0.00 90 994.9
20260506171141 60 181 1.0 6.0 0.00 0.77 0.00 88 994.6
20260506164141 62 166 0.0 3.0 0.00 0.77 0.00 86 994.5
20260506155641 65 170 0.0 4.0 0.01 0.77 0.77 81 994.4
20260506154143 64 189 0.0 4.0 0.01 0.77 0.77 81 994.3
20260506152642 63 200 2.0 6.0 0.07 0.77 0.77 82 994.4
20260506151142 64 135 0.0 1.0 0.08 0.77 0.77 82 994.2
20260506145643 63 181 0.0 3.0 0.07 0.76 0.76 83 994.4
20260506144142 63 135 0.0 0.0 0.07 0.76 0.76 79 994.4
20260506142643 66 135 0.0 2.0 0.01 0.70 0.70 68 994.5
20260506141140 69 135 0.0 1.0 0.00 0.69 0.69 62 994.5
20260506135642 70 0 0.0 0.0 0.00 0.69 0.69 58 994.4
20260506134142 72 135 1.0 3.0 0.00 0.69 0.69 56 994.7
20260506132642 76 144 0.0 2.0 0.00 0.69 0.69 51 994.6
20260506131142 74 140 0.0 3.0 0.00 0.69 0.69 58 994.8
20260506125644 70 141 0.0 3.0 0.00 0.69 0.69 64 994.8
20260506124142 69 140 0.0 1.0 0.00 0.70 0.69 65 995.1
20260506122640 70 143 0.0 4.0 0.00 0.70 0.69 63 995.0
20260506121141 70 135 0.0 3.0 0.00 0.70 0.69 66 995.0
20260506115642 70 135 1.0 3.0 0.00 0.70 0.69 65 995.0
20260506114142 70 151 0.0 3.0 0.00 0.70 0.69 68 994.7
20260506111141 67 137 0.0 3.0 0.00 0.70 0.69 72 994.9
20260506105642 67 181 0.0 2.0 0.00 0.70 0.69 74 995.1
20260506104141 68 137 0.0 3.0 0.00 0.70 0.69 71 995.2
20260506102642 70 147 0.0 3.0 0.00 0.70 0.69 72 995.2
20260506101140 63 135 0.0 2.0 0.00 0.70 0.69 81 995.1